Springfield, IL

2:32 PM CST on December 05, 2019 (GMT -0600)
Capital

Weather History for KSPI - October, 2019

Change the Weather History Date:

Thursday, October 24, 2019

  Actual Average Record
Temperature  
Mean Temperature 49 °F 52 °F  
Max Temperature 57 °F 63 °F 83 °F (1963)
Min Temperature 41 °F 42 °F 23 °F (1981)
Degree Days  
Heating Degree Days 16 13  
Month to date heating degree days 229 230  
Since 1 July heating degree days 230 311  
Cooling Degree Days 0 0  
Month to date cooling degree days 32 19  
Year to date cooling degree days 1309 1118  
Moisture  
Dew Point 39 °F    
Average Humidity 70    
Maximum Humidity 82    
Minimum Humidity 57    
Precipitation  
Precipitation 0.00 in 0.11 in 1.12 in (1918)
Month to date precipitation 1.04 2.43  
Year to date precipitation 41.59 30.98  
Snow  
Snow 0.00 in 0.00 in T in (2013)
Month to date snowfall 0.0 0.0  
Since 1 July snowfall 0.0 0.0  
Since 1 September snowfall 0.0 0.0  
Snow Depth 0.00 in    
Sea Level Pressure  
Sea Level Pressure 30.27 in    
Wind  
Wind Speed 7 mph (NNW)    
Max Wind Speed 18 mph    
Max Gust Speed 25 mph    
Visibility 10 miles    
Events      
T = Trace of Precipitation, MM = Missing Value Source: NWS Daily Summary

Daily Weather History Graph

Daily Weather History Graph

Search for Another Location

Airport or City:

Astronomy

Oct. 24, 2019 Rise Set
Actual Time 7:18 AM CDT 6:06 PM CDT
Civil Twilight 6:50 AM CDT 6:34 PM CDT
Nautical Twilight 6:19 AM CDT 7:05 PM CDT
Astronomical Twilight 5:47 AM CDT 7:37 PM CDT
Moon 2:49 AM CDT (10/24) 4:33 PM CDT (10/24)
Length of Visible Light 11h 43m
Length of Day
10h 48m
Waning Crescent, 16% of the Moon is Illuminated
Oct 24
Waning Crescent
Oct 27
New
Nov 4
First Quarter
Nov 12
Full
Nov 19
Last Quarter

Hourly Weather History & Observations

Time (CDT) Temp. Windchill Dew Point Humidity Pressure Visibility Wind Dir Wind Speed Gust Speed Precip Events Conditions
12:52 AM 57.9 °F - 42.1 °F 56% 30.05 in 10.0 mi West 10.4 mph 19.6 mph N/A   Mostly Cloudy
1:52 AM 54.0 °F - 42.1 °F 64% 30.08 in 10.0 mi WNW 13.8 mph 23.0 mph N/A   Scattered Clouds
2:52 AM 48.9 °F - 42.1 °F 77% 30.13 in 10.0 mi NW 15.0 mph - N/A   Scattered Clouds
2:59 AM 48.9 °F - 42.1 °F 77% 30.14 in 10.0 mi NW 16.1 mph - N/A   Mostly Cloudy
3:10 AM 48.0 °F - 42.1 °F 80% 30.14 in 10.0 mi NNW 12.7 mph - N/A   Overcast
3:52 AM 46.9 °F - 41.0 °F 80% 30.17 in 10.0 mi NNW 12.7 mph 24.2 mph N/A   Overcast
4:52 AM 46.0 °F 39.9 °F 39.9 °F 79% 30.19 in 10.0 mi NNW 13.8 mph - N/A   Overcast
5:52 AM 43.0 °F 38.2 °F 37.9 °F 82% 30.22 in 10.0 mi NNW 8.1 mph - N/A   Partly Cloudy
6:52 AM 42.1 °F 39.2 °F 37.0 °F 82% 30.25 in 10.0 mi NNW 4.6 mph - N/A   Clear
7:52 AM 42.1 °F 38.4 °F 37.0 °F 82% 30.29 in 10.0 mi NNW 5.8 mph - N/A   Clear
8:52 AM 43.0 °F 39.5 °F 37.9 °F 82% 30.31 in 10.0 mi North 5.8 mph - N/A   Clear
9:52 AM 44.1 °F 39.5 °F 37.9 °F 79% 30.32 in 10.0 mi North 8.1 mph - N/A   Clear
10:52 AM 45.0 °F 40.6 °F 37.9 °F 76% 30.34 in 10.0 mi North 8.1 mph - N/A   Partly Cloudy
11:52 AM 48.0 °F - 39.0 °F 71% 30.33 in 10.0 mi NNE 5.8 mph - N/A   Clear
12:52 PM 48.9 °F - 39.0 °F 69% 30.33 in 10.0 mi North 8.1 mph - N/A   Clear
1:52 PM 48.9 °F - 37.9 °F 66% 30.32 in 10.0 mi North 6.9 mph - N/A   Scattered Clouds
2:52 PM 48.9 °F - 37.9 °F 66% 30.33 in 10.0 mi North 6.9 mph - N/A   Mostly Cloudy
3:52 PM 48.9 °F - 37.9 °F 66% 30.34 in 10.0 mi North 5.8 mph - N/A   Mostly Cloudy
4:52 PM 48.9 °F - 37.9 °F 66% 30.32 in 10.0 mi NNW 8.1 mph - N/A   Overcast
5:52 PM 48.0 °F - 37.9 °F 68% 30.32 in 10.0 mi North 4.6 mph - N/A   Overcast
6:52 PM 46.0 °F 43.9 °F 37.9 °F 73% 30.33 in 10.0 mi North 4.6 mph - N/A   Overcast
7:52 PM 46.0 °F 43.1 °F 37.9 °F 73% 30.36 in 10.0 mi North 5.8 mph - N/A   Overcast
8:52 PM 46.0 °F 42.5 °F 37.0 °F 71% 30.35 in 10.0 mi North 6.9 mph - N/A   Overcast
9:52 PM 46.0 °F 44.8 °F 37.0 °F 71% 30.37 in 10.0 mi North 3.5 mph - N/A   Overcast
10:52 PM 46.0 °F 43.1 °F 37.9 °F 73% 30.37 in 10.0 mi NNW 5.8 mph - N/A   Overcast
11:52 PM 45.0 °F 43.5 °F 37.9 °F 76% 30.37 in 10.0 mi North 3.5 mph - N/A   Overcast